Regional Weather Roundup
Issued by NWS New Orleans/Baton Rouge, LA

Home | Current Version | Previous Version | Text Only | Print | Product List | Glossary On
Versions: 1 2 3 4 5 6 7 8 9 10 11 12 13 14 15 16 17 18 19 20 21 22 23 24 25 26 27 28 29 30 31 32 33 34 35 36 37 38 39 40 41 42 43 44 45 46 47 48 49 50
000
ASUS44 KLIX 311212
RWRLIX
NEW ORLEANS REGIONAL WEATHER ROUNDUP
NATIONAL WEATHER SERVICE NEW ORLEANS LA
700 AM CDT TUE MAY 31 2016

NOTE: "FAIR" INDICATES FEW OR NO CLOUDS BELOW 12,000 FEET WITH NO
      SIGNIFICANT WEATHER AND/OR OBSTRUCTIONS TO VISIBILITY.
      SKY/WX - SKY CONDITION AND SIGNIFICANT WEATHER.
      TMP - AIR TEMPERATURE.     DP    - DEWPOINT TEMPERATURE.
      RH  - RELATIVE HUMIDITY.   PRES  - PRESSURE.
      HI  - HEAT INDEX.          WCI   - WIND CHILL INDEX.

*  THESE STATIONS ARE NOT NWS OR FAA STATIONS AND ARE NOT UNDER
   NWS QUALITY CONTROL.

LAZ038-040-048-061>063-065>067-069-311300-
SOUTHEAST LOUISIANA

CITY           SKY/WX    TMP DP  RH WIND       PRES   REMARKS
N.O. AUDUBON     N/A     74  73  96 MISG        N/A
6HR MIN TEMP:  72; 6HR MAX TEMP:  77;

N.O. INTL ARPT PTSUNNY   74  71  91 CALM      29.95R
6HR MIN TEMP:  72; 6HR MAX TEMP:  75;

N.O. LAKEFRONT MOSUNNY   77  72  84 SW6       29.95R
6HR MIN TEMP:  77; 6HR MAX TEMP:  79;

N.O. DOWNTOWN*   N/A     76  72  87 CALM      29.96R
6HR MIN TEMP:  75; 6HR MAX TEMP:  78;

RESERVE*         N/A     74  72  93 CALM      29.94S FOG
6HR MIN TEMP:  72; 6HR MAX TEMP:  75;

SLIDELL        SUNNY     70  69  97 N3        29.94S
6HR MIN TEMP:  69; 6HR MAX TEMP:  74;

BATON ROUGE    CLOUDY    74  70  87 CALM      29.93R
6HR MIN TEMP:  70; 6HR MAX TEMP:  74;

BOOTHVILLE     PTSUNNY   77  71  82 CALM      29.96R
6HR MIN TEMP:  75; 6HR MAX TEMP:  78;

BELLE CHASSE   PTSUNNY   71  70  96 CALM      29.95R
6HR MIN TEMP:  68; 6HR MAX TEMP:  73;

BOGALUSA*        N/A     69  65  89 CALM      29.97R
6HR MIN TEMP:  68; 6HR MAX TEMP:  72;

GALLIANO*      SUNNY     67  65  94 CALM      29.95R
6HR MIN TEMP:  65; 6HR MAX TEMP:  68;

NEW ROADS*       N/A     70  70  98 CALM      29.94R
6HR MIN TEMP:  70; 6HR MAX TEMP:  73;

GONZALES*        N/A     72  72 100 CALM      29.93S
6HR MIN TEMP:  71; 6HR MAX TEMP:  74;

HAMMOND*       CLOUDY    70  68  94 CALM      29.94S
HOUMA*         SUNNY     72  72 100 CALM      29.95R
PORT FOURCHON* SUNNY     79  70  73 SW5       29.95R

$$

MSZ070-080>082-311300-
SOUTHERN MISSISSIPPI

CITY           SKY/WX    TMP DP  RH WIND       PRES   REMARKS
MCCOMB         CLOUDY    69  66  90 CALM      29.95R
6HR MIN TEMP:  66; 6HR MAX TEMP:  69;

GULFPORT       CLOUDY    74  72  93 CALM      29.93S
6HR MIN TEMP:  73; 6HR MAX TEMP:  76;

BILOXI         MOSUNNY   76  74  95 N1        29.94R
6HR MIN TEMP:  75; 6HR MAX TEMP:  78;

PASCAGOULA     SUNNY     71  70  96 CALM      29.95R
6HR MIN TEMP:  66; 6HR MAX TEMP:  71;

STENNIS ARPT*  MOSUNNY   70  64  83 CALM      29.95  FOG

$$

COASTAL OBSERVATIONS
LAKE AND NEARSHORE STATIONS

STATION/POSITION TIME  TEMP    WIND        PRES    WAVE
                       AIR SEA DIR/SP/G            HT/PER
                 (UTC) (F)     (DEG/KT/KT) (MB)    (FT/S)
PASCAGOULA       1100   75     330/  5/  6 1013.4
WAVELAND YACHT   1100   74 81  300/  3/  3 1013.6
GRAND ISLE       1100   78 83  230/  4/  5 1013.8
SOUTHWEST PASS   1100          210/  6/  7   N/A
NEW CANAL        1100   76 81  230/  3/  4 1013.2
SHELL BEACH      1100   76 82  270/  4/  4 1013.9

OFFSHORE STATIONS

STATION/POSITION TIME  TEMP    WIND        PRES    WAVE
                       AIR SEA DIR/SP/G            HT/PER
                 (UTC) (F)     (DEG/KT/KT) (MB)    (FT/S)
64 S DAUPHIN ISL 1100   79 81  230/  8/ 10 1013.9

$$




USA.gov is the U.S. government's official web portal to all federal, state and local government web resources and services.